Flag for Cyprus Weather past 2 weeks in Nicosia, Cyprus

Now
64 °F

Passing clouds.


Feels Like: 64 °F
Forecast: 42 / 57 °F
Wind: 8 mph from Northwest

Location: Ercan

Current Time: Dec 21, 2014 at 2:56:02 PM

Latest Report: Dec 21, 2014 at 2:20 PM


Visibility: N/A

Pressure: 30.07 "Hg

Humidity: 49%

Dew point: 45 °F

Location of NicosiaLocation

Historic Weather in Nicosia — Graph

°F

Nicosia temperature yesterday

Maximum temperature yesterday: 63 °F (at 1:20 PM)
Minimum temperature yesterday: 46 °F (at 3:50 AM)
Average temperature yesterday: 54 °F

Past Weeks' High & Low Weather Summary

 TemperatureHumidityPressure
High70 °F (Dec 6, 1:20 PM)100% (Dec 10, 2:20 AM)30.27 "Hg (Dec 10, 2:20 AM)
Low45 °F (Dec 16, 3:50 AM)43% (Dec 15, 12:50 PM)29.71 "Hg (Dec 9, 12:20 PM)
Average57 °F82%30.06 "Hg
* Reported Dec 6 1:20 PM — Dec 21 1:20 PM, Nicosia, Weather by CustomWeather, © 2014

Note: Actual official high and low records may vary slightly from our data, if they occured in-between our weather recording intervals... More about our weather records

Advertising

Nicosia weather history for previous 24 hours

 ConditionsComfort  
Time TempWeatherWind HumidityBarometerVisibility
1:20 PM
Dec 21
64 °FPassing clouds.6 mph46%30.07 "HgN/A
12:50 PM64 °FPassing clouds.3 mph52%30.09 "HgN/A
12:20 PM64 °FPassing clouds.6 mph49%30.09 "HgN/A
11:50 AM63 °FPassing clouds.5 mph59%30.09 "HgN/A
11:20 AM63 °FPassing clouds.7 mph64%30.12 "HgN/A
10:50 AM61 °FPassing clouds.8 mph63%30.12 "HgN/A
10:20 AM59 °FPassing clouds.5 mph68%30.12 "HgN/A
9:50 AM57 °FPassing clouds.6 mph72%30.12 "HgN/A
9:20 AM54 °FPassing clouds.8 mph77%30.15 "HgN/A
8:50 AM52 °FPassing clouds.7 mph77%30.12 "HgN/A
8:20 AM50 °FPassing clouds.9 mph82%30.12 "HgN/A
7:50 AM46 °FPassing clouds.8 mph87%30.12 "HgN/A
7:20 AM46 °FPassing clouds.7 mph82%30.12 "HgN/A
6:50 AM45 °FPassing clouds.7 mph87%30.12 "HgN/A
6:20 AM45 °FPassing clouds.9 mph93%30.09 "HgN/A
5:50 AM45 °FPassing clouds.9 mph93%30.09 "HgN/A
5:20 AM45 °FPassing clouds.10 mph93%30.09 "HgN/A
4:50 AM46 °FPassing clouds.9 mph87%30.09 "HgN/A
4:20 AM45 °FPassing clouds.8 mph87%30.09 "HgN/A
3:50 AM46 °FPassing clouds.8 mph87%30.09 "HgN/A
3:20 AM46 °FPassing clouds.9 mph87%30.09 "HgN/A
2:50 AM46 °FPassing clouds.8 mph87%30.12 "HgN/A
2:20 AM46 °FPassing clouds.9 mph87%30.12 "HgN/A
1:50 AM46 °FPassing clouds.9 mph93%30.12 "HgN/A
1:20 AM46 °FPassing clouds.9 mph93%30.12 "HgN/A
12:50 AM48 °FPassing clouds.10 mph87%30.12 "HgN/A
12:20 AM46 °FPassing clouds.9 mph93%30.12 "HgN/A
11:50 PM
Dec 20
48 °FPassing clouds.7 mph94%30.12 "HgN/A
11:20 PM48 °FPassing clouds.5 mph87%30.12 "HgN/A
10:50 PM50 °FPassing clouds.8 mph88%30.12 "HgN/A
10:20 PM48 °FPassing clouds.7 mph94%30.12 "HgN/A
9:50 PM50 °FPassing clouds.8 mph88%30.12 "Hg4 mi
9:20 PM50 °FPassing clouds.8 mph88%30.12 "HgN/A
8:50 PM50 °FPassing clouds.8 mph88%30.12 "HgN/A
8:20 PM52 °FPassing clouds.5 mph88%30.12 "HgN/A
7:50 PM50 °FPassing clouds.5 mph88%30.12 "HgN/A
7:20 PM54 °FPassing clouds.No wind88%30.12 "HgN/A
6:50 PM55 °FPassing clouds.No wind82%30.12 "HgN/A
6:20 PM54 °FPassing clouds.No wind88%30.09 "HgN/A
5:50 PM55 °FPassing clouds.6 mph82%30.09 "HgN/A
5:20 PM55 °FPassing clouds.5 mph82%30.09 "HgN/A
4:50 PM57 °FPassing clouds.6 mph77%30.09 "HgN/A
4:20 PM59 °FBroken clouds.5 mph72%30.09 "HgN/A
3:50 PM61 °FScattered clouds.5 mph63%30.09 "HgN/A
3:20 PM61 °FScattered clouds.5 mph63%30.09 "HgN/A
2:50 PM61 °FScattered clouds.5 mph63%30.07 "HgN/A
2:20 PM63 °FScattered clouds.7 mph59%30.07 "HgN/A
Weather by CustomWeather, © 2014

See weather overviewHow to use our weather pages